Location: Krasnoyarskiy Pitomnik
(51.1333°N, 71.6167°E)
Time: 14:18:21
(UTC+00:00)

NOSS 2-3 (D) - Pass Details

Date: 22 October 2021
Orbit: 538 x 1672 km, 63.3° (Epoch: 25 November)

Event Time Altitude Azimuth Distance (km) Brightness Sun altitude
Rises 14:15:37 0° 215° (SW) 2,696 7.2 -20.9°
Reaches altitude 10° 14:17:40 10° 213° (SSW) 1,842 6.3 -21.2°
Maximum altitude 14:21:41 69° 130° (SE) 658 3.4 -21.8°
Enters shadow 14:22:00 66° 98° (E) 678 3.4 -21.9°
